Starlink 32525

operational
NORAD ID: 62121 Int'l Des: 2024-222 Owner: SPXS Country: US Constellation: starlink
LEOCIRCULAR

Über Starlink 32525

Beschreibung wird geladen...

Live-Position

3D-Globus wird geladen...

Nächste Überflüge

Höhenverlauf

Altitude vs Time

uPlot chart will show altitude changes over time

Zweizeiliger Elementsatz

1 62121U 24222H 25351.76977457 .00026836 00000-0 98078-3 0 9992
2 62121 42.9979 238.5453 0001211 256.3152 103.7565 15.27593816 60238
Epoch: 17. Dez. 2025 • Age: 17 hours

Aktueller Status

Höhe 483.1 km
Geschwindigkeit 7.63 km/s
Subsatellitenpunkt 23.45°N, 3.72°W
Startdatum 27. Nov. 2024
Alter 1 years
Typ internet

Technische Details

Klassifizierung Payload
Masse 730.00 kg
Trockenmasse 700.00 kg
Gesamtmasse 730.00 kg
Länge 0.30 m
Durchmesser 4.10 m
Spannweite 29.00 m
Form Box + pan
Hersteller SPXS
Bus-Typ Starlink V2M
Phasenstatus In Orbit
Besitzer/Staat SPXS/US

Große Konstellationen

Loading constellations...